Location: Kammschlacken
(51.7597°N, 10.3901°E)
Time: 00:10:11
(UTC+00:00)

Daily predictions for brighter satellites

Satellite Brightness Start Highest point End
(mag) Time Altitude Azimuth Time Altitude Azimuth Time Altitude Azimuth
Cosmos 2344 4.4 02:24:42 42° E 02:24:42 42° E 02:30:24 10° NE
Cosmos 2369 Rocket 4.2 02:52:23 22° ESE 02:53:12 22° ESE 02:57:26 10° NE
USA 215 3.8 02:54:25 10° E 02:59:30 53° ENE 02:59:30 53° ENE
Cosmos 1943 Rocket 3.5 03:12:50 35° NE 03:12:50 35° NE 03:16:09 10° NE
CZ-2C R/B 4.3 03:09:44 10° ESE 03:14:24 30° ENE 03:16:08 25° NNE
Tsikada Rocket 4.2 03:31:33 68° ESE 03:31:50 69° E 03:38:08 10° NNE
MOS 1-B Rocket 4.1 03:36:17 10° SSE 03:42:16 66° ENE 03:43:22 54° NNE
Cosmos 2297 4.2 03:44:28 51° NNE 03:44:28 51° NNE 03:48:43 10° NNE
CENTAUR R/B 2.5 03:44:24 85° N 03:44:24 85° N 03:51:41 10° NE
Cosmos 2278 Rocket 4.0 03:51:48 20° N 03:51:48 20° N 03:53:54 10° NNE
Cosmos 1151 Rocket 4.5 04:05:31 30° SSE 04:05:31 30° SSE 04:07:46 10° SSE
NOSS 3-2 (A) 3.5 04:04:16 62° NNW 04:04:16 62° NNW 04:10:56 10° NE
Cosmos 1486 Rocket 4.3 04:03:40 35° S 04:05:52 65° ESE 04:11:07 10° NNE
Meteor 2-6 Rocket 4.2 04:05:32 41° N 04:07:28 75° ENE 04:12:51 10° SSE
H-2A R/B 4.4 04:05:49 10° ESE 04:09:06 21° ENE 04:12:26 10° N
DNEPR-1 R/B 4.4 04:11:35 49° S 04:11:35 49° S 04:15:59 10° SSE
Lacrosse 4 Rocket 4.0 04:10:15 13° N 04:10:58 13° NNE 04:13:09 10° NE
NOSS 3-2 (C) 3.3 04:12:49 66° WSW 04:13:40 79° NW 04:20:27 10° NE
Cosmos 1833 4.1 04:15:45 69° WNW 04:16:24 79° WSW 04:22:08 10° SSE
Okean 3 Rocket 4.1 04:14:26 10° S 04:18:53 59° E 04:23:22 10° NNE
Meteor 2-3 Rocket 3.9 04:20:24 51° NW 04:20:24 51° NW 04:25:10 10° N
SL-27 R/B 3.5 04:21:23 46° E 04:21:23 46° E 04:24:19 10° SE
BREEZE-M DEB (TANK) 4.3 04:21:03 30° SSW 04:21:32 30° SSW 04:30:47 10° SE
Cosmos 1766 Rocket 3.7 04:17:38 10° S 04:21:57 69° E 04:26:16 10° NNE
Envisat 3.3 04:17:35 10° NNE 04:22:39 65° ESE 04:27:41 10° S
Cosmos 1328 Rocket 3.4 04:25:33 85° S 04:25:33 85° S 04:29:47 10° S
Cosmos 968 Rocket 3.6 04:27:18 55° NNW 04:27:18 55° NNW 04:31:46 10° NNE
Cosmos 2297 Rocket 3.8 04:25:42 15° N 04:29:26 28° NE 04:34:18 10° E
Cosmos 2263 4.3 04:24:35 13° SSW 04:29:47 79° ESE 04:35:34 10° NNE
Meteor 1-10 Rocket 4.1 04:30:29 17° NNW 04:34:55 89° E 04:40:29 10° S
Cosmos 2098 Rocket 3.1 04:32:19 23° SSW 04:35:04 78° WNW 04:40:36 10° N
Cosmos 1607 4.4 04:32:53 28° NNW 04:36:07 55° NE 04:42:11 10° ESE
Cosmos 2142 Rocket 4.4 04:30:08 10° NNW 04:36:27 69° W 04:42:47 10° S
Cosmos 2369 Rocket 2.0 04:34:16 35° SW 04:36:39 74° WNW 04:42:18 10° NNE
Cosmos 2344 3.7 04:34:44 39° W 04:37:18 55° NNW 04:45:35 10° NE
FALCON 9 DEB 3.5 04:40:34 59° ENE 04:40:34 59° ENE 04:43:26 10° ENE
SL-19 R/B 4.4 04:34:54 10° S 04:40:18 50° WSW 04:41:27 43° WNW
Cosmos 2279 Rocket 3.9 04:34:41 10° NNW 04:40:50 68° W 04:46:58 10° S
USA 238 DEB 3.7 04:39:33 40° W 04:41:50 59° NW 04:48:47 10° NE
USA 238 3.7 04:39:38 40° W 04:41:56 59° NW 04:48:53 10° NE
Cosmos 1656 Rocket 3.5 04:37:56 16° SSW 04:42:23 86° WNW 04:47:53 10° NNE
COSMO-SKYMED 1 2.5 04:38:30 10° S 04:42:48 61° WSW 04:42:52 61° W
H-2A R/B 2.8 04:39:07 10° NNE 04:46:53 - SSW 04:42:13 59° N
Meteor 1-31 Rocket 2.9 04:39:30 10° NNE 04:43:25 75° ESE 04:47:20 10° S
USA 215 3.2 04:37:22 10° SE 04:43:54 72° SSW 04:46:50 35° WNW
Alouette 2 Rocket 4.4 04:43:05 14° N 04:46:08 41° ENE 04:49:30 10° SE
Cosmos 2263 Rocket 4.4 04:47:49 10° N 04:50:35 14° NNE 04:53:21 10° NE
CBERS 1 LM4 rocket 4.4 04:46:40 10° NNE 04:51:34 88° ESE 04:56:36 10° SSW
CZ-4B R/B 4.0 04:47:56 10° NNE 04:52:25 87° WNW 04:56:54 10° SSW
IRAS Rocket 4.3 04:47:55 10° SSE 04:53:25 80° ENE 04:58:56 10° NNW
CZ-4B R/B 3.8 04:51:31 10° ESE 04:54:03 21° ENE 04:56:35 10° NNE
Nadezhda 4 Rocket 4.4 04:48:05 10° S 04:54:11 65° E 05:00:23 10° NNE
Cosmos 1408 Rocket 3.7 04:50:08 10° S 04:54:25 72° E 04:58:44 10° NNE
CZ-2C R/B 2.7 04:49:09 10° S 04:54:28 53° W 04:57:37 24° NNW
Cosmos 1943 Rocket 2.8 04:54:23 33° NW 04:54:41 33° NW 04:59:47 10° NNE
Kosmos-917 4.0 04:57:03 49° WNW 04:57:37 58° NNW 05:04:00 10° NE
Cosmos 1354 Rocket 4.0 04:55:30 10° SSW 05:00:48 89° ESE 05:06:10 10° NNE
Meteor 2-15 4.3 04:56:07 10° NNW 05:02:09 68° W 05:08:08 10° S
Cosmos 2228 Rocket 4.0 04:58:24 10° N 05:02:48 50° ENE 05:07:12 10° SSE
Gblst 52 Del rocket 4.5 04:59:59 31° W 05:03:12 89° S 05:10:15 10° E
Cosmos 1743 Rocket 4.5 05:00:01 10° S 05:04:14 50° E 05:08:27 10° NNE
Cosmos 2227 Rocket 3.5 05:00:32 11° NNW 05:05:27 34° NE 05:10:34 10° ESE
Cosmos 1862 3.6 05:07:19 42° WNW 05:07:19 42° WNW 05:11:04 10° N
Cosmos 1515 Rocket 3.5 05:06:34 21° NNW 05:09:23 59° W 05:13:38 10° S
Landsat 5 4.0 05:06:27 10° S 05:10:44 43° W 05:12:33 29° NW
ADEOS 3.6 05:06:25 10° NNE 05:11:41 84° ESE 05:16:55 10° SSW
SJ 16-02 1.8 05:09:28 10° S 05:13:46 62° ESE 05:18:07 10° NNE
BREEZE-M DEB (TANK) 3.5 05:16:52 29° WSW 05:18:34 69° S 05:27:21 10° E
Meteor 2-19 Rocket 4.3 05:14:29 10° SSW 05:20:33 80° WNW 05:26:39 10° N
NOAA 11 4.2 05:17:44 10° NNE 05:23:15 87° WNW 05:28:44 10° SSW
Cosmos 1538 Rocket 3.9 05:20:40 14° NNW 05:25:17 79° WSW 05:30:28 10° SSE
COSMOS 2487 2.2 05:23:41 26° NNW 05:25:26 74° WSW 05:28:45 10° SSE
CZ-4C R/B 3.7 05:24:02 10° SSW 05:26:27 27° WSW 05:26:27 27° WSW
CZ-2C R/B 2.9 05:25:58 10° NNE 05:30:51 88° ESE 05:35:57 10° SSW
Cosmos 1500 Rocket 3.5 05:27:29 10° SSW 05:31:57 84° W 05:36:28 10° N
OPS 6432 4.1 05:31:52 28° NW 05:33:17 86° NE 05:36:34 10° SE
SMAP 3.9 05:29:04 10° NNE 05:33:40 55° E 05:38:14 10° S
GENESIS II 4.2 05:31:41 21° NW 05:34:16 83° NE 05:38:14 10° SE
Cosmos 2278 Rocket 4.1 05:33:39 11° NNW 05:35:05 12° NNW 05:37:26 10° N
CENTAUR R/B 3.4 05:31:36 19° WNW 05:35:53 40° NNW 05:43:12 10° NE
Sich 1 3.8 05:33:56 10° S 05:38:06 55° E 05:42:19 10° NNE
FALCON 9 DEB 2.6 05:37:32 30° WNW 05:38:48 72° N 05:41:42 10° E
CZ-4B R/B 2.4 05:35:16 10° NNE 05:38:51 80° WNW 05:42:26 10° SSW
H-2A R/B 3.7 05:34:32 10° NNE 05:39:02 34° E 05:43:31 10° SSE
Meteor 1-27 Rocket 4.0 05:34:53 10° NNW 05:40:16 47° W 05:45:44 10° SSW
Cosmos 2219 3.9 05:35:01 10° NNW 05:40:34 53° NE 05:46:07 10° SE
Cosmos 1503 Rocket 4.4 05:36:05 10° SW 05:41:07 43° NW 05:46:14 10° NNE
Cosmos 1707 Rocket 4.2 05:36:52 10° N 05:41:16 59° ENE 05:45:39 10° SSE
FALCON 9 DEB 2.5 05:40:01 28° WNW 05:41:20 81° N 05:44:12 10° E
FALCON 9 DEB 2.5 05:40:11 28° WNW 05:41:32 85° NNE 05:44:23 10° ESE
ATLAS 5 CENTAUR R/B 1.6 05:37:50 10° SW 05:41:43 72° SE 05:46:12 10° NE
Meteor PRIRODA 3.5 05:40:06 10° N 05:43:41 61° WNW 05:47:15 10° SSW
Cosmos 1805 Rocket 3.7 05:39:44 10° S 05:44:07 80° E 05:48:30 10° NNE
H-2A R/B 2.1 05:40:27 10° S 05:44:41 58° WSW 05:49:03 10° NNW
Cosmos 1500 3.9 05:42:10 10° S 05:45:54 56° E 05:49:39 10° NNE
Cosmos 1680 Rocket 4.0 05:40:47 10° NNW 05:46:04 60° ENE 05:51:17 10° SE
USA 32 4.0 05:42:26 10° NNW 05:47:38 64° W 05:52:48 10° S
Cosmos 1777 Rocket 3.9 05:43:08 10° SW 05:48:20 69° WNW 05:53:37 10° NNE
FAST Rocket 4.3 05:48:05 10° SSW 05:50:45 52° WNW 05:54:22 10° N
Lacrosse 4 Rocket 2.7 05:46:42 10° NNW 05:50:52 37° NE 05:55:03 10° ESE
Cosmos 1515 4.0 05:49:02 10° NNW 05:52:41 45° W 05:56:18 10° SSW
SL-27 R/B 4.2 05:54:53 15° W 05:55:27 15° W 05:57:37 10° SW
Cosmos 1340 Rocket 3.0 05:52:38 10° SSW 05:56:29 49° WNW 06:00:25 10° N
Okean O Rocket 4.0 05:53:06 10° NE 05:56:54 27° E 06:00:40 10° SSE
Cosmos 2026 Rocket 4.0 05:53:42 10° S 06:00:03 87° W 06:06:21 10° N
Cosmos 923 Rocket 4.1 05:55:09 10° NNW 06:00:32 86° WSW 06:05:54 10° SSE
Envisat 4.0 05:57:17 10° N 06:01:17 24° WNW 06:05:17 10° WSW
NOAA 6 4.1 05:57:16 10° NNE 06:02:26 87° ESE 06:07:34 10° SSW
Cosmos 2195 Rocket 4.4 05:57:59 10° SSW 06:04:04 72° WNW 06:10:13 10° N
ATLAS 3B R/B 2.8 05:58:48 10° SW 06:05:23 85° SE 06:12:22 10° NE
FALCON 9 DEB 2.6 06:03:14 15° WNW 06:05:32 84° NNE 06:08:26 10° ESE
NOSS 3-2 (C) 4.3 06:00:17 12° W 06:05:33 36° NNW 06:12:06 10° NE
Cosmos 1553 Rocket 4.0 06:01:12 10° N 06:07:20 86° E 06:13:26 10° S
Meteor 1-25 Rocket 4.2 06:05:57 10° SSW 06:11:32 68° WNW 06:17:06 10° N
Cosmos 1939 Rocket 3.0 06:08:47 10° N 06:12:37 49° WNW 06:16:21 10° SW
Cosmos 2297 Rocket 2.2 06:08:24 10° NNW 06:14:05 76° WSW 06:19:44 10° SSE
Cosmos 1809 Rocket 4.4 06:08:25 10° SSW 06:14:33 69° WNW 06:20:42 10° N
PSLV R/B 4.0 06:10:49 10° S 06:14:50 60° WSW 06:18:56 10° NNW
Cosmos 1666 3.1 06:11:21 10° S 06:15:06 66° E 06:18:52 10° NNE
EO 1 Delta rocket 4.4 06:09:58 10° N 06:16:41 72° WNW 06:21:57 10° SSW
FALCON 9 DEB 3.1 06:13:36 11° WNW 06:16:55 77° N 06:20:18 10° E
Meteor 1-31 Rocket 4.4 06:15:07 10° NNW 06:17:17 15° WNW 06:19:28 10° W
Cosmos 1174 3.5 06:15:45 10° WSW 06:18:39 45° NW 06:21:53 10° NNE
Cosmos 2369 Rocket 3.4 06:17:27 10° W 06:21:40 21° NW 06:25:56 10° NNE
Cosmos 1607 4.4 06:17:26 10° NW 06:23:19 44° WSW 06:29:05 10° S
CZ-4B R/B 2.2 06:22:56 10° SSW 06:25:55 31° W 06:28:52 10° NNW
Cosmos 1633 Rocket 3.2 06:21:46 10° S 06:26:06 79° E 06:30:27 10° NNE
USA 215 4.5 06:22:22 10° S 06:27:41 26° SW 06:33:00 10° WNW
SL-4 R/B 4.1 06:24:57 10° SSW 06:28:03 27° SE 06:31:21 10° E
Okean 1 4.0 06:24:42 10° NNW 06:28:19 34° W 06:31:53 10° SSW
Cosmos 2112 Rocket 4.1 06:23:27 10° NNW 06:28:49 78° WSW 06:34:05 10° SSE
